Time,TemperatureF,DewpointF,PressureIn,WindDirection,WindDirectionDegrees,WindSpeedMPH,WindSpeedGustMPH,Humidity,HourlyPrecipIn,Conditions,Clouds,dailyrainin,SoftwareType,DateUTC
2013-12-07 00:02:00,-4.0,-7.8,30.66,NNW,343,1.0,2.0,83,0.00,,---,0.00,VWS V14.01,2013-12-07 07:02:00,
2013-12-07 00:07:00,-3.7,-7.6,30.66,NNW,343,0.0,0.0,83,0.00,,---,0.00,VWS V14.01,2013-12-07 07:07:00,
2013-12-07 00:12:00,-3.6,-7.7,30.66,NNW,343,0.0,0.0,82,0.00,,---,0.00,VWS V14.01,2013-12-07 07:12:00,
2013-12-07 00:17:00,-3.5,-7.6,30.66,NNW,343,0.0,0.0,82,0.00,,---,0.00,VWS V14.01,2013-12-07 07:17:00,
2013-12-07 00:22:00,-3.7,-8.1,30.66,NNW,343,0.0,0.0,81,0.00,,---,0.00,VWS V14.01,2013-12-07 07:22:00,
2013-12-07 00:27:00,-3.9,-8.2,30.66,NNW,343,0.0,0.0,81,0.00,,---,0.00,VWS V14.01,2013-12-07 07:27:00,
2013-12-07 00:32:00,-4.0,-8.4,30.65,NNW,343,0.0,0.0,81,0.00,,---,0.00,VWS V14.01,2013-12-07 07:32:00,
2013-12-07 00:37:00,-4.0,-8.4,30.65,NNW,343,0.0,0.0,81,0.00,,---,0.00,VWS V14.01,2013-12-07 07:37:00,
2013-12-07 00:42:00,-4.1,-8.4,30.65,NNW,343,0.0,0.0,81,0.00,,---,0.00,VWS V14.01,2013-12-07 07:42:00,
2013-12-07 00:47:00,-4.1,-8.2,30.64,NNW,343,0.0,0.0,82,0.00,,---,0.00,VWS V14.01,2013-12-07 07:47:00,
2013-12-07 00:52:00,-4.1,-8.2,30.64,NNW,343,0.0,0.0,82,0.00,,---,0.00,VWS V14.01,2013-12-07 07:52:00,
2013-12-07 00:57:00,-4.1,-7.9,30.64,NNW,343,0.0,0.0,83,0.00,,---,0.00,VWS V14.01,2013-12-07 07:57:00,
2013-12-07 01:02:00,-4.0,-7.8,30.64,NNW,343,0.0,0.0,83,0.00,,---,0.00,VWS V14.01,2013-12-07 08:02:00,
2013-12-07 01:07:00,-3.9,-7.5,30.64,NNW,343,0.0,0.0,84,0.00,,---,0.00,VWS V14.01,2013-12-07 08:07:00,
2013-12-07 01:12:00,-3.8,-7.4,30.64,NNW,343,0.0,0.0,84,0.00,,---,0.00,VWS V14.01,2013-12-07 08:12:00,
2013-12-07 01:17:00,-3.7,-7.3,30.64,NNW,343,0.0,0.0,84,0.00,,---,0.00,VWS V14.01,2013-12-07 08:17:00,
2013-12-07 01:22:00,-3.5,-7.1,30.64,NNW,343,0.0,0.0,84,0.00,,---,0.00,VWS V14.01,2013-12-07 08:22:00,
2013-12-07 01:27:00,-3.3,-6.7,30.64,NNW,343,0.0,0.0,85,0.00,,---,0.00,VWS V14.01,2013-12-07 08:27:00,
2013-12-07 01:32:00,-2.9,-6.0,30.64,NNW,343,0.0,0.0,86,0.00,,---,0.00,VWS V14.01,2013-12-07 08:32:00,
2013-12-07 01:37:00,-2.6,-5.7,30.63,NNW,343,0.0,0.0,86,0.00,,---,0.00,VWS V14.01,2013-12-07 08:37:00,
2013-12-07 01:42:00,-2.5,-5.9,30.63,NNW,343,0.0,0.0,85,0.00,,---,0.00,VWS V14.01,2013-12-07 08:42:00,
2013-12-07 01:47:00,-2.6,-6.0,30.63,NNW,343,0.0,0.0,85,0.00,,---,0.00,VWS V14.01,2013-12-07 08:47:00,
2013-12-07 01:53:00,-2.6,-6.0,30.63,NNW,343,0.0,0.0,85,0.00,,---,0.00,VWS V14.01,2013-12-07 08:53:00,
2013-12-07 01:58:00,-2.5,-5.9,30.62,NNW,343,0.0,0.0,85,0.00,,---,0.00,VWS V14.01,2013-12-07 08:58:00,
2013-12-07 02:03:00,-2.5,-5.9,30.62,NNW,343,0.0,0.0,85,0.00,,---,0.00,VWS V14.01,2013-12-07 09:03:00,
2013-12-07 02:08:00,-2.3,-5.4,30.62,NNW,343,0.0,0.0,86,0.00,,---,0.00,VWS V14.01,2013-12-07 09:08:00,
2013-12-07 02:13:00,-2.2,-5.3,30.62,NNW,343,0.0,0.0,86,0.00,,---,0.00,VWS V14.01,2013-12-07 09:13:00,
2013-12-07 02:18:00,-2.1,-5.2,30.61,NNW,343,0.0,0.0,86,0.00,,---,0.00,VWS V14.01,2013-12-07 09:18:00,
2013-12-07 02:23:00,-2.0,-5.4,30.62,NNW,343,0.0,0.0,85,0.00,,---,0.00,VWS V14.01,2013-12-07 09:23:00,
2013-12-07 02:28:00,-2.1,-5.5,30.61,NNW,343,0.0,0.0,85,0.00,,---,0.00,VWS V14.01,2013-12-07 09:28:00,
2013-12-07 02:33:00,-2.1,-5.5,30.61,NNW,343,0.0,0.0,85,0.00,,---,0.00,VWS V14.01,2013-12-07 09:33:00,
2013-12-07 02:38:00,-2.0,-5.4,30.61,NNW,343,0.0,0.0,85,0.00,,---,0.00,VWS V14.01,2013-12-07 09:38:00,
2013-12-07 02:43:00,-2.0,-5.4,30.60,NNW,343,0.0,0.0,85,0.00,,---,0.00,VWS V14.01,2013-12-07 09:43:00,
2013-12-07 02:48:00,-1.8,-5.0,30.60,NNW,343,0.0,1.0,86,0.00,,---,0.00,VWS V14.01,2013-12-07 09:48:00,
2013-12-07 02:53:00,-1.8,-5.2,30.61,NNW,343,0.0,0.0,85,0.00,,---,0.00,VWS V14.01,2013-12-07 09:53:00,
2013-12-07 02:58:00,-1.7,-4.9,30.60,NNW,343,0.0,0.0,86,0.00,,---,0.00,VWS V14.01,2013-12-07 09:58:00,
2013-12-07 03:03:00,-1.6,-4.8,30.61,NNW,343,0.0,0.0,86,0.00,,---,0.00,VWS V14.01,2013-12-07 10:03:00,
2013-12-07 03:08:00,-1.5,-4.7,30.60,NNW,343,0.0,0.0,86,0.00,,---,0.00,VWS V14.01,2013-12-07 10:08:00,
2013-12-07 03:13:00,-1.3,-4.5,30.60,NNW,343,1.0,1.0,86,0.00,,---,0.00,VWS V14.01,2013-12-07 10:13:00,
2013-12-07 03:18:00,-1.2,-4.4,30.60,NNW,343,0.0,0.0,86,0.00,,---,0.00,VWS V14.01,2013-12-07 10:18:00,
2013-12-07 03:23:00,-1.0,-4.2,30.60,NNW,343,0.0,0.0,86,0.00,,---,0.00,VWS V14.01,2013-12-07 10:23:00,
2013-12-07 03:28:00,-0.8,-3.7,30.60,NNW,343,0.0,0.0,87,0.00,,---,0.00,VWS V14.01,2013-12-07 10:28:00,
2013-12-07 03:33:00,-0.7,-3.6,30.59,NNW,343,0.0,0.0,87,0.00,,---,0.00,VWS V14.01,2013-12-07 10:33:00,
2013-12-07 03:38:00,-0.5,-3.4,30.59,NNW,343,0.0,0.0,87,0.00,,---,0.00,VWS V14.01,2013-12-07 10:38:00,
2013-12-07 03:43:00,-0.5,-3.7,30.59,NNW,343,0.0,0.0,86,0.00,,---,0.00,VWS V14.01,2013-12-07 10:43:00,
2013-12-07 03:48:00,-0.5,-3.7,30.59,NNW,343,0.0,0.0,86,0.00,,---,0.00,VWS V14.01,2013-12-07 10:48:00,
2013-12-07 03:53:00,-0.5,-3.7,30.58,NNW,343,0.0,0.0,86,0.00,,---,0.00,VWS V14.01,2013-12-07 10:53:00,
2013-12-07 03:58:00,-0.4,-3.6,30.58,NNW,343,0.0,0.0,86,0.00,,---,0.00,VWS V14.01,2013-12-07 10:58:00,
2013-12-07 04:03:00,-0.4,-3.6,30.58,NNW,343,0.0,0.0,86,0.00,,---,0.00,VWS V14.01,2013-12-07 11:03:00,
2013-12-07 04:08:00,-0.4,-3.6,30.57,NNW,343,0.0,0.0,86,0.00,,---,0.00,VWS V14.01,2013-12-07 11:08:00,
2013-12-07 04:13:00,-0.4,-3.6,30.57,NNW,343,0.0,0.0,86,0.00,,---,0.00,VWS V14.01,2013-12-07 11:13:00,
2013-12-07 04:18:00,-0.4,-3.6,30.57,NNW,343,0.0,0.0,86,0.00,,---,0.00,VWS V14.01,2013-12-07 11:18:00,
2013-12-07 04:23:00,-0.3,-3.5,30.57,NNW,343,0.0,0.0,86,0.00,,---,0.00,VWS V14.01,2013-12-07 11:23:00,
2013-12-07 04:28:00,-0.3,-3.5,30.56,NNW,343,0.0,0.0,86,0.00,,---,0.00,VWS V14.01,2013-12-07 11:28:00,
2013-12-07 04:33:00,-0.3,-3.5,30.55,NNW,343,0.0,0.0,86,0.00,,---,0.00,VWS V14.01,2013-12-07 11:33:00,
2013-12-07 04:38:00,-0.3,-3.5,30.54,NNW,343,0.0,0.0,86,0.00,,---,0.00,VWS V14.01,2013-12-07 11:38:00,
2013-12-07 04:43:00,-0.3,-3.5,30.54,NNW,343,1.0,1.0,86,0.00,,---,0.00,VWS V14.01,2013-12-07 11:43:00,
2013-12-07 04:48:00,-0.1,-3.3,30.54,NNW,343,0.0,0.0,86,0.00,,---,0.00,VWS V14.01,2013-12-07 11:48:00,
2013-12-07 04:53:00,-0.1,-2.9,30.53,NNW,343,0.0,0.0,87,0.00,,---,0.00,VWS V14.01,2013-12-07 11:53:00,
2013-12-07 04:58:00,0.1,-2.8,30.53,NNW,343,0.0,1.0,87,0.00,,---,0.00,VWS V14.01,2013-12-07 11:58:00,
2013-12-07 05:03:00,0.2,-2.7,30.52,NNW,343,1.0,2.0,87,0.00,,---,0.00,VWS V14.01,2013-12-07 12:03:00,
2013-12-07 05:08:00,0.2,-3.0,30.52,NNW,343,2.0,3.0,86,0.00,,---,0.00,VWS V14.01,2013-12-07 12:08:00,
2013-12-07 05:13:00,0.2,-3.0,30.52,NNW,343,1.0,1.0,86,0.00,,---,0.00,VWS V14.01,2013-12-07 12:13:00,
2013-12-07 05:19:00,0.4,-2.5,30.51,NNW,343,1.0,1.0,87,0.00,,---,0.00,VWS V14.01,2013-12-07 12:19:00,
2013-12-07 05:24:00,0.5,-2.5,30.51,NNW,343,0.0,0.0,87,0.00,,---,0.00,VWS V14.01,2013-12-07 12:24:00,
2013-12-07 05:29:00,0.5,-2.5,30.51,NNW,343,0.0,0.0,87,0.00,,---,0.00,VWS V14.01,2013-12-07 12:29:00,
2013-12-07 05:34:00,0.6,-2.3,30.51,NNW,343,0.0,0.0,87,0.00,,---,0.00,VWS V14.01,2013-12-07 12:34:00,
2013-12-07 05:39:00,0.6,-2.3,30.51,NNW,343,0.0,0.0,87,0.00,,---,0.00,VWS V14.01,2013-12-07 12:39:00,
2013-12-07 05:44:00,0.7,-2.2,30.51,NNW,343,1.0,2.0,87,0.00,,---,0.00,VWS V14.01,2013-12-07 12:44:00,
2013-12-07 05:49:00,0.7,-2.5,30.50,NNW,343,0.0,0.0,86,0.00,,---,0.00,VWS V14.01,2013-12-07 12:49:00,
2013-12-07 05:54:00,0.7,-2.5,30.50,NNW,343,0.0,0.0,86,0.00,,---,0.00,VWS V14.01,2013-12-07 12:54:00,
2013-12-07 05:59:00,0.7,-2.5,30.50,NNW,343,0.0,0.0,86,0.00,,---,0.00,VWS V14.01,2013-12-07 12:59:00,
2013-12-07 06:04:00,0.7,-2.5,30.50,NNW,343,0.0,0.0,86,0.00,,---,0.00,VWS V14.01,2013-12-07 13:04:00,
2013-12-07 06:09:00,0.8,-2.4,30.49,NNW,343,0.0,0.0,86,0.00,,---,0.00,VWS V14.01,2013-12-07 13:09:00,
2013-12-07 06:14:00,0.7,-2.5,30.49,NNW,343,0.0,0.0,86,0.00,,---,0.00,VWS V14.01,2013-12-07 13:14:00,
2013-12-07 06:19:00,0.7,-2.5,30.49,NNW,343,0.0,0.0,86,0.00,,---,0.00,VWS V14.01,2013-12-07 13:19:00,
2013-12-07 06:24:00,0.8,-2.4,30.49,NNW,343,0.0,0.0,86,0.00,,---,0.00,VWS V14.01,2013-12-07 13:24:00,
2013-12-07 06:29:00,0.9,-2.3,30.48,NNW,343,2.0,2.0,86,0.00,,---,0.00,VWS V14.01,2013-12-07 13:29:00,
2013-12-07 06:34:00,1.0,-2.0,30.49,NNW,343,2.0,2.0,87,0.00,,---,0.00,VWS V14.01,2013-12-07 13:34:00,
2013-12-07 06:39:00,1.1,-1.9,30.48,NNW,343,2.0,2.0,87,0.00,,---,0.00,VWS V14.01,2013-12-07 13:39:00,
2013-12-07 06:44:00,1.4,-1.6,30.48,NNW,343,2.0,3.0,87,0.00,,---,0.00,VWS V14.01,2013-12-07 13:44:00,
2013-12-07 06:49:00,1.6,-1.4,30.48,NNW,343,0.0,0.0,87,0.00,,---,0.00,VWS V14.01,2013-12-07 13:49:00,
2013-12-07 06:54:00,1.7,-1.3,30.48,NNW,343,1.0,1.0,87,0.00,,---,0.00,VWS V14.01,2013-12-07 13:54:00,
2013-12-07 06:59:00,1.7,-1.3,30.48,NNW,343,1.0,2.0,87,0.00,,---,0.00,VWS V14.01,2013-12-07 13:59:00,
2013-12-07 07:04:00,1.5,-1.7,30.48,NNW,343,1.0,2.0,86,0.00,,---,0.00,VWS V14.01,2013-12-07 14:04:00,
2013-12-07 07:09:00,1.5,-1.7,30.48,NNW,343,0.0,0.0,86,0.00,,---,0.00,VWS V14.01,2013-12-07 14:09:00,
2013-12-07 07:14:00,1.5,-1.7,30.47,NNW,343,0.0,0.0,86,0.00,,---,0.00,VWS V14.01,2013-12-07 14:14:00,
2013-12-07 07:19:00,1.4,-1.8,30.47,NNW,343,1.0,1.0,86,0.00,,---,0.00,VWS V14.01,2013-12-07 14:19:00,
2013-12-07 07:24:00,1.5,-1.5,30.47,NNW,343,0.0,0.0,87,0.00,,---,0.00,VWS V14.01,2013-12-07 14:24:00,
2013-12-07 07:29:00,1.7,-1.3,30.46,NNW,343,1.0,2.0,87,0.00,,---,0.00,VWS V14.01,2013-12-07 14:29:00,
2013-12-07 07:34:00,1.8,-1.2,30.46,NNW,343,0.0,0.0,87,0.00,,---,0.00,VWS V14.01,2013-12-07 14:34:00,
2013-12-07 07:39:00,1.9,-1.1,30.46,NNW,343,0.0,0.0,87,0.00,,---,0.00,VWS V14.01,2013-12-07 14:39:00,
2013-12-07 07:44:00,2.1,-0.9,30.46,NNW,343,0.0,0.0,87,0.00,,---,0.00,VWS V14.01,2013-12-07 14:44:00,
2013-12-07 07:49:00,2.2,-0.8,30.45,NNW,343,0.0,0.0,87,0.00,,---,0.00,VWS V14.01,2013-12-07 14:49:00,
2013-12-07 07:54:00,2.3,-0.7,30.45,NNW,343,0.0,0.0,87,0.00,,---,0.00,VWS V14.01,2013-12-07 14:54:00,
2013-12-07 07:59:00,2.3,-0.7,30.45,NNW,343,0.0,0.0,87,0.00,,---,0.00,VWS V14.01,2013-12-07 14:59:00,
2013-12-07 08:04:00,2.4,-0.6,30.45,NNW,343,0.0,0.0,87,0.00,,---,0.00,VWS V14.01,2013-12-07 15:04:00,
2013-12-07 08:09:00,2.5,-0.5,30.44,NNW,343,0.0,0.0,87,0.00,,---,0.00,VWS V14.01,2013-12-07 15:09:00,
2013-12-07 08:14:00,2.6,-0.4,30.45,NNW,343,0.0,0.0,87,0.00,,---,0.00,VWS V14.01,2013-12-07 15:14:00,
2013-12-07 08:19:00,2.8,-0.2,30.45,NNW,343,2.0,2.0,87,0.00,,---,0.00,VWS V14.01,2013-12-07 15:19:00,
2013-12-07 08:24:00,2.8,-0.2,30.44,NNW,343,3.0,3.0,87,0.00,,---,0.00,VWS V14.01,2013-12-07 15:24:00,
2013-12-07 08:29:00,3.0,0.0,30.44,NNW,343,2.0,2.0,87,0.00,,---,0.00,VWS V14.01,2013-12-07 15:29:00,
2013-12-07 08:34:00,3.4,0.6,30.44,NNW,343,2.0,3.0,88,0.00,,---,0.00,VWS V14.01,2013-12-07 15:34:00,
2013-12-07 08:39:00,3.7,0.9,30.44,NNW,343,0.0,0.0,88,0.00,,---,0.00,VWS V14.01,2013-12-07 15:39:00,
2013-12-07 08:44:00,3.9,0.9,30.44,NNW,343,0.0,0.0,87,0.00,,---,0.00,VWS V14.01,2013-12-07 15:44:00,
2013-12-07 08:49:00,4.0,1.0,30.44,NNW,343,0.0,0.0,87,0.00,,---,0.00,VWS V14.01,2013-12-07 15:49:00,
2013-12-07 08:54:00,4.1,1.1,30.44,NNW,343,0.0,0.0,87,0.00,,---,0.00,VWS V14.01,2013-12-07 15:54:00,
2013-12-07 09:00:00,4.3,1.3,30.44,NNW,343,0.0,0.0,87,0.00,,---,0.00,VWS V14.01,2013-12-07 16:00:00,
2013-12-07 09:05:00,4.5,1.5,30.44,NNW,343,0.0,0.0,87,0.00,,---,0.00,VWS V14.01,2013-12-07 16:05:00,
2013-12-07 09:10:00,5.0,2.0,30.44,NNW,343,0.0,0.0,87,0.00,,---,0.00,VWS V14.01,2013-12-07 16:10:00,
2013-12-07 09:15:00,5.2,2.2,30.44,NNW,343,0.0,0.0,87,0.00,,---,0.00,VWS V14.01,2013-12-07 16:15:00,
2013-12-07 09:20:00,5.6,2.6,30.44,NNW,343,2.0,2.0,87,0.00,,---,0.00,VWS V14.01,2013-12-07 16:20:00,
2013-12-07 09:25:00,5.7,2.4,30.44,NNW,343,0.0,0.0,86,0.00,,---,0.00,VWS V14.01,2013-12-07 16:25:00,
2013-12-07 09:30:00,5.8,2.5,30.44,NNW,343,0.0,0.0,86,0.00,,---,0.00,VWS V14.01,2013-12-07 16:30:00,
2013-12-07 09:35:00,5.9,2.6,30.44,NNW,343,0.0,0.0,86,0.00,,---,0.00,VWS V14.01,2013-12-07 16:35:00,
2013-12-07 09:40:00,6.2,2.9,30.43,NNW,343,0.0,0.0,86,0.00,,---,0.00,VWS V14.01,2013-12-07 16:40:00,
2013-12-07 09:45:00,6.4,3.1,30.43,NNW,343,0.0,0.0,86,0.00,,---,0.00,VWS V14.01,2013-12-07 16:45:00,
2013-12-07 09:50:00,6.6,3.3,30.43,NNW,343,0.0,0.0,86,0.00,,---,0.00,VWS V14.01,2013-12-07 16:50:00,
2013-12-07 09:55:00,7.2,3.9,30.42,NNW,343,0.0,0.0,86,0.00,,---,0.00,VWS V14.01,2013-12-07 16:55:00,
2013-12-07 10:00:00,7.7,4.1,30.43,NNW,343,0.0,0.0,85,0.00,,---,0.00,VWS V14.01,2013-12-07 17:00:00,
2013-12-07 10:05:00,7.9,4.3,30.42,NNW,343,0.0,0.0,85,0.00,,---,0.00,VWS V14.01,2013-12-07 17:05:00,
2013-12-07 10:10:00,8.0,4.2,30.42,NNW,343,0.0,0.0,84,0.00,,---,0.00,VWS V14.01,2013-12-07 17:10:00,
2013-12-07 10:15:00,8.4,4.6,30.42,NNW,343,0.0,0.0,84,0.00,,---,0.00,VWS V14.01,2013-12-07 17:15:00,
2013-12-07 10:20:00,8.7,5.1,30.41,NNW,343,0.0,0.0,85,0.00,,---,0.00,VWS V14.01,2013-12-07 17:20:00,
2013-12-07 10:25:00,9.2,5.6,30.41,NNW,343,0.0,0.0,85,0.00,,---,0.00,VWS V14.01,2013-12-07 17:25:00,
2013-12-07 10:30:00,9.3,5.4,30.41,NNW,343,0.0,0.0,84,0.00,,---,0.00,VWS V14.01,2013-12-07 17:30:00,
2013-12-07 10:35:00,9.8,5.9,30.40,NNW,343,0.0,0.0,84,0.00,,---,0.00,VWS V14.01,2013-12-07 17:35:00,
2013-12-07 10:40:00,10.4,6.3,30.40,NNW,343,0.0,0.0,83,0.00,,---,0.00,VWS V14.01,2013-12-07 17:40:00,
2013-12-07 10:45:00,11.5,6.8,30.39,NNW,343,0.0,0.0,81,0.00,,---,0.00,VWS V14.01,2013-12-07 17:45:00,
2013-12-07 10:50:00,11.9,6.9,30.39,NNW,343,0.0,0.0,80,0.00,,---,0.00,VWS V14.01,2013-12-07 17:50:00,
2013-12-07 10:55:00,11.7,6.5,30.38,NNW,343,0.0,0.0,79,0.00,,---,0.00,VWS V14.01,2013-12-07 17:55:00,
2013-12-07 11:00:00,11.7,6.5,30.38,NNW,343,0.0,0.0,79,0.00,,---,0.00,VWS V14.01,2013-12-07 18:00:00,
2013-12-07 11:05:00,11.8,6.8,30.38,NNW,343,0.0,0.0,80,0.00,,---,0.00,VWS V14.01,2013-12-07 18:05:00,
2013-12-07 11:10:00,11.8,6.8,30.37,NNW,343,0.0,0.0,80,0.00,,---,0.00,VWS V14.01,2013-12-07 18:10:00,
2013-12-07 11:15:00,11.7,6.7,30.37,NNW,343,0.0,0.0,80,0.00,,---,0.00,VWS V14.01,2013-12-07 18:15:00,
2013-12-07 11:20:00,11.5,6.5,30.36,NNW,343,0.0,0.0,80,0.00,,---,0.00,VWS V14.01,2013-12-07 18:20:00,
2013-12-07 11:25:00,11.4,6.4,30.35,NNW,343,0.0,0.0,80,0.00,,---,0.00,VWS V14.01,2013-12-07 18:25:00,
2013-12-07 11:30:00,11.5,6.8,30.35,NNW,343,1.0,1.0,81,0.00,,---,0.00,VWS V14.01,2013-12-07 18:30:00,
2013-12-07 11:35:00,11.8,7.1,30.34,NNW,343,0.0,0.0,81,0.00,,---,0.00,VWS V14.01,2013-12-07 18:35:00,
2013-12-07 11:40:00,12.9,7.9,30.34,NNW,343,0.0,0.0,80,0.00,,---,0.00,VWS V14.01,2013-12-07 18:40:00,
2013-12-07 11:45:00,13.8,8.5,30.33,NNW,343,0.0,0.0,79,0.00,,---,0.00,VWS V14.01,2013-12-07 18:45:00,
2013-12-07 11:50:00,14.3,8.7,30.33,NNW,343,0.0,0.0,78,0.00,,---,0.00,VWS V14.01,2013-12-07 18:50:00,
2013-12-07 11:55:00,14.2,8.9,30.32,NNW,343,0.0,0.0,79,0.00,,---,0.00,VWS V14.01,2013-12-07 18:55:00,
2013-12-07 12:00:00,13.8,8.5,30.31,NNW,343,0.0,0.0,79,0.00,,---,0.00,VWS V14.01,2013-12-07 19:00:00,
2013-12-07 12:05:00,13.4,8.4,30.30,NNW,343,0.0,0.0,80,0.00,,---,0.00,VWS V14.01,2013-12-07 19:05:00,
2013-12-07 12:10:00,13.0,8.0,30.30,NNW,343,1.0,1.0,80,0.00,,---,0.00,VWS V14.01,2013-12-07 19:10:00,
2013-12-07 12:15:00,12.8,8.1,30.29,NNW,343,1.0,2.0,81,0.00,,---,0.00,VWS V14.01,2013-12-07 19:15:00,
2013-12-07 12:21:00,12.8,8.4,30.28,NNW,343,0.0,0.0,82,0.00,,---,0.00,VWS V14.01,2013-12-07 19:21:00,
2013-12-07 12:26:00,12.9,8.4,30.28,NNW,343,0.0,0.0,82,0.00,,---,0.00,VWS V14.01,2013-12-07 19:26:00,
2013-12-07 12:31:00,12.7,8.5,30.28,NNW,343,0.0,0.0,83,0.00,,---,0.00,VWS V14.01,2013-12-07 19:31:00,
2013-12-07 12:36:00,12.8,8.6,30.27,NNW,343,4.0,4.0,83,0.00,,---,0.00,VWS V14.01,2013-12-07 19:36:00,
2013-12-07 12:41:00,12.3,8.1,30.27,NNW,343,2.0,3.0,83,0.00,,---,0.00,VWS V14.01,2013-12-07 19:41:00,
2013-12-07 12:46:00,12.1,7.9,30.26,NNW,343,0.0,0.0,83,0.00,,---,0.00,VWS V14.01,2013-12-07 19:46:00,
2013-12-07 12:51:00,12.4,8.5,30.26,NNW,343,0.0,0.0,84,0.00,,---,0.00,VWS V14.01,2013-12-07 19:51:00,
2013-12-07 12:56:00,13.0,9.1,30.25,NNW,343,0.0,0.0,84,0.00,,---,0.00,VWS V14.01,2013-12-07 19:56:00,
2013-12-07 13:01:00,13.8,9.6,30.25,NNW,343,0.0,0.0,83,0.00,,---,0.00,VWS V14.01,2013-12-07 20:01:00,
2013-12-07 13:06:00,14.0,9.8,30.25,NNW,343,0.0,0.0,83,0.00,,---,0.00,VWS V14.01,2013-12-07 20:06:00,
2013-12-07 13:11:00,14.4,10.2,30.24,NNW,343,0.0,0.0,83,0.00,,---,0.00,VWS V14.01,2013-12-07 20:11:00,
2013-12-07 13:16:00,14.9,10.4,30.24,NNW,343,0.0,0.0,82,0.00,,---,0.00,VWS V14.01,2013-12-07 20:16:00,
2013-12-07 13:21:00,15.0,10.8,30.23,NNW,343,0.0,0.0,83,0.00,,---,0.00,VWS V14.01,2013-12-07 20:21:00,
2013-12-07 13:26:00,15.2,11.0,30.23,NNW,343,0.0,0.0,83,0.00,,---,0.00,VWS V14.01,2013-12-07 20:26:00,
2013-12-07 13:31:00,15.3,10.8,30.23,NNW,343,0.0,0.0,82,0.00,,---,0.00,VWS V14.01,2013-12-07 20:31:00,
2013-12-07 13:36:00,15.4,11.2,30.23,NNW,343,0.0,0.0,83,0.00,,---,0.00,VWS V14.01,2013-12-07 20:36:00,
2013-12-07 13:41:00,15.2,10.7,30.23,NNW,343,1.0,2.0,82,0.00,,---,0.00,VWS V14.01,2013-12-07 20:41:00,
2013-12-07 13:46:00,14.8,10.3,30.22,NNW,343,1.0,1.0,82,0.00,,---,0.00,VWS V14.01,2013-12-07 20:46:00,
2013-12-07 13:51:00,14.2,9.7,30.22,NNW,343,1.0,2.0,82,0.00,,---,0.00,VWS V14.01,2013-12-07 20:51:00,
2013-12-07 13:56:00,13.7,9.2,30.21,NNW,343,2.0,2.0,82,0.00,,---,0.00,VWS V14.01,2013-12-07 20:56:00,
2013-12-07 14:01:00,13.4,9.2,30.21,NNW,343,3.0,3.0,83,0.00,,---,0.00,VWS V14.01,2013-12-07 21:01:00,
2013-12-07 14:06:00,13.1,9.2,30.21,NNW,343,2.0,2.0,84,0.00,,---,0.00,VWS V14.01,2013-12-07 21:06:00,
2013-12-07 14:11:00,13.0,9.4,30.21,NNW,343,0.0,0.0,85,0.00,,---,0.00,VWS V14.01,2013-12-07 21:11:00,
2013-12-07 14:16:00,13.0,9.4,30.20,NNW,343,0.0,1.0,85,0.00,,---,0.00,VWS V14.01,2013-12-07 21:16:00,
2013-12-07 14:21:00,13.1,9.7,30.20,NNW,343,0.0,0.0,86,0.00,,---,0.00,VWS V14.01,2013-12-07 21:21:00,
2013-12-07 14:26:00,13.1,9.7,30.20,NNW,343,0.0,0.0,86,0.00,,---,0.00,VWS V14.01,2013-12-07 21:26:00,
2013-12-07 14:31:00,13.2,9.8,30.20,NNW,343,0.0,2.0,86,0.00,,---,0.00,VWS V14.01,2013-12-07 21:31:00,
2013-12-07 14:36:00,13.2,9.8,30.19,NNW,343,0.0,0.0,86,0.00,,---,0.00,VWS V14.01,2013-12-07 21:36:00,
2013-12-07 14:41:00,13.2,9.8,30.19,NNW,343,0.0,0.0,86,0.00,,---,0.00,VWS V14.01,2013-12-07 21:41:00,
2013-12-07 14:46:00,13.3,9.9,30.19,NNW,343,0.0,0.0,86,0.00,,---,0.00,VWS V14.01,2013-12-07 21:46:00,
2013-12-07 14:51:00,13.5,10.1,30.19,NNW,343,0.0,0.0,86,0.00,,---,0.00,VWS V14.01,2013-12-07 21:51:00,
2013-12-07 14:56:00,13.9,10.5,30.18,NNW,343,0.0,0.0,86,0.00,,---,0.00,VWS V14.01,2013-12-07 21:56:00,
2013-12-07 15:01:00,14.1,10.7,30.19,NNW,343,0.0,0.0,86,0.00,,---,0.00,VWS V14.01,2013-12-07 22:01:00,
2013-12-07 15:06:00,14.1,10.7,30.19,NNW,343,0.0,0.0,86,0.00,,---,0.00,VWS V14.01,2013-12-07 22:06:00,
2013-12-07 15:11:00,14.1,10.7,30.19,NNW,343,0.0,0.0,86,0.00,,---,0.00,VWS V14.01,2013-12-07 22:11:00,
2013-12-07 15:16:00,14.1,10.7,30.18,NNW,343,0.0,0.0,86,0.00,,---,0.00,VWS V14.01,2013-12-07 22:16:00,
2013-12-07 15:21:00,14.2,10.8,30.18,NNW,343,0.0,0.0,86,0.00,,---,0.00,VWS V14.01,2013-12-07 22:21:00,
2013-12-07 15:26:00,14.0,10.3,30.18,NNW,343,0.0,0.0,85,0.00,,---,0.00,VWS V14.01,2013-12-07 22:26:00,
2013-12-07 15:31:00,13.9,10.2,30.18,NNW,343,0.0,0.0,85,0.00,,---,0.00,VWS V14.01,2013-12-07 22:31:00,
2013-12-07 15:36:00,13.8,10.4,30.18,NNW,343,0.0,0.0,86,0.00,,---,0.00,VWS V14.01,2013-12-07 22:36:00,
2013-12-07 15:41:00,13.7,10.3,30.17,NNW,343,0.0,0.0,86,0.00,,---,0.00,VWS V14.01,2013-12-07 22:41:00,
2013-12-07 15:46:00,13.4,10.0,30.17,NNW,343,0.0,0.0,86,0.00,,---,0.00,VWS V14.01,2013-12-07 22:46:00,
2013-12-07 15:51:00,13.3,9.9,30.18,NNW,343,0.0,0.0,86,0.00,,---,0.00,VWS V14.01,2013-12-07 22:51:00,
2013-12-07 15:56:00,13.2,9.8,30.18,NNW,343,0.0,0.0,86,0.00,,---,0.00,VWS V14.01,2013-12-07 22:56:00,
2013-12-07 16:01:00,12.9,9.5,30.18,NNW,343,0.0,0.0,86,0.00,,---,0.00,VWS V14.01,2013-12-07 23:01:00,
2013-12-07 16:06:00,12.5,9.1,30.18,NNW,343,1.0,2.0,86,0.00,,---,0.00,VWS V14.01,2013-12-07 23:06:00,
2013-12-07 16:11:00,12.3,8.9,30.17,NNW,343,0.0,1.0,86,0.00,,---,0.00,VWS V14.01,2013-12-07 23:11:00,
2013-12-07 16:16:00,12.1,9.0,30.17,NNW,343,0.0,0.0,87,0.00,,---,0.00,VWS V14.01,2013-12-07 23:16:00,
2013-12-07 16:21:00,11.9,8.8,30.17,NNW,343,2.0,3.0,87,0.00,,---,0.00,VWS V14.01,2013-12-07 23:21:00,
2013-12-07 16:26:00,11.8,8.7,30.18,NNW,343,0.0,0.0,87,0.00,,---,0.00,VWS V14.01,2013-12-07 23:26:00,
2013-12-07 16:31:00,11.8,8.9,30.18,NNW,343,2.0,2.0,88,0.00,,---,0.00,VWS V14.01,2013-12-07 23:31:00,
2013-12-07 16:37:00,11.7,8.8,30.18,NNW,343,0.0,0.0,88,0.00,,---,0.00,VWS V14.01,2013-12-07 23:37:00,
2013-12-07 16:42:00,11.6,8.7,30.18,NNW,343,0.0,0.0,88,0.00,,---,0.00,VWS V14.01,2013-12-07 23:42:00,
2013-12-07 16:47:00,11.5,8.6,30.17,NNW,344,3.0,3.0,88,0.00,,---,0.00,VWS V14.01,2013-12-07 23:47:00,
2013-12-07 16:52:00,11.4,8.8,30.18,NNW,344,0.0,1.0,89,0.00,,---,0.00,VWS V14.01,2013-12-07 23:52:00,
2013-12-07 16:57:00,11.4,8.8,30.17,NNW,344,4.0,4.0,89,0.00,,---,0.00,VWS V14.01,2013-12-07 23:57:00,
2013-12-07 17:02:00,11.4,8.8,30.17,NNW,344,2.0,4.0,89,0.00,,---,0.00,VWS V14.01,2013-12-08 00:02:00,
2013-12-07 17:07:00,11.4,8.8,30.17,NNW,344,2.0,3.0,89,0.00,,---,0.00,VWS V14.01,2013-12-08 00:07:00,
2013-12-07 17:12:00,11.4,8.8,30.17,NNW,344,3.0,4.0,89,0.00,,---,0.00,VWS V14.01,2013-12-08 00:12:00,
2013-12-07 17:17:00,11.4,8.8,30.17,NNW,344,3.0,4.0,89,0.00,,---,0.00,VWS V14.01,2013-12-08 00:17:00,
2013-12-07 17:22:00,11.4,8.8,30.17,NNW,344,2.0,4.0,89,0.00,,---,0.00,VWS V14.01,2013-12-08 00:22:00,
2013-12-07 17:27:00,11.4,8.8,30.16,NNW,344,0.0,0.0,89,0.00,,---,0.00,VWS V14.01,2013-12-08 00:27:00,
2013-12-07 17:32:00,11.4,8.8,30.16,NNW,344,2.0,2.0,89,0.00,,---,0.00,VWS V14.01,2013-12-08 00:32:00,
2013-12-07 17:37:00,11.4,8.8,30.16,NNW,344,2.0,2.0,89,0.00,,---,0.00,VWS V14.01,2013-12-08 00:37:00,
2013-12-07 17:42:00,11.3,8.9,30.16,NNW,344,2.0,4.0,90,0.00,,---,0.00,VWS V14.01,2013-12-08 00:42:00,
2013-12-07 17:47:00,11.3,8.9,30.16,NNW,344,0.0,1.0,90,0.00,,---,0.00,VWS V14.01,2013-12-08 00:47:00,
2013-12-07 17:52:00,11.3,8.9,30.16,NNW,344,1.0,2.0,90,0.00,,---,0.00,VWS V14.01,2013-12-08 00:52:00,
2013-12-07 17:57:00,11.3,8.9,30.15,NNW,344,0.0,0.0,90,0.00,,---,0.00,VWS V14.01,2013-12-08 00:57:00,
2013-12-07 18:02:00,11.3,8.9,30.15,NNW,344,0.0,0.0,90,0.00,,---,0.00,VWS V14.01,2013-12-08 01:02:00,
2013-12-07 18:07:00,11.3,8.9,30.15,NNW,344,0.0,0.0,90,0.00,,---,0.00,VWS V14.01,2013-12-08 01:07:00,
2013-12-07 18:12:00,11.3,8.9,30.16,NNW,344,2.0,3.0,90,0.00,,---,0.00,VWS V14.01,2013-12-08 01:12:00,
2013-12-07 18:17:00,11.2,8.9,30.15,NNW,344,3.0,3.0,90,0.00,,---,0.00,VWS V14.01,2013-12-08 01:17:00,
2013-12-07 18:22:00,11.2,8.9,30.15,NNW,344,1.0,2.0,90,0.00,,---,0.00,VWS V14.01,2013-12-08 01:22:00,
2013-12-07 18:27:00,11.3,8.9,30.15,NNW,344,1.0,1.0,90,0.00,,---,0.00,VWS V14.01,2013-12-08 01:27:00,
2013-12-07 18:32:00,11.2,8.9,30.16,NNW,344,0.0,0.0,90,0.00,,---,0.00,VWS V14.01,2013-12-08 01:32:00,
2013-12-07 18:37:00,11.3,8.9,30.16,NNW,344,2.0,2.0,90,0.00,,---,0.00,VWS V14.01,2013-12-08 01:37:00,
2013-12-07 18:42:00,11.2,8.9,30.16,NNW,344,1.0,2.0,90,0.00,,---,0.00,VWS V14.01,2013-12-08 01:42:00,
2013-12-07 18:47:00,11.2,8.9,30.15,NNW,344,0.0,0.0,90,0.00,,---,0.00,VWS V14.01,2013-12-08 01:47:00,
2013-12-07 18:52:00,11.2,8.9,30.16,NNW,344,0.0,0.0,90,0.00,,---,0.00,VWS V14.01,2013-12-08 01:52:00,
2013-12-07 18:57:00,11.2,8.9,30.15,NNW,344,0.0,0.0,90,0.00,,---,0.00,VWS V14.01,2013-12-08 01:57:00,
2013-12-07 19:02:00,11.2,8.9,30.15,NNW,344,1.0,2.0,90,0.00,,---,0.00,VWS V14.01,2013-12-08 02:02:00,
2013-12-07 19:07:00,11.2,8.9,30.15,NNW,344,1.0,1.0,90,0.00,,---,0.00,VWS V14.01,2013-12-08 02:07:00,
2013-12-07 19:12:00,11.3,8.9,30.14,NNW,344,0.0,0.0,90,0.00,,---,0.00,VWS V14.01,2013-12-08 02:12:00,
2013-12-07 19:17:00,11.3,8.9,30.14,NNW,344,0.0,0.0,90,0.00,,---,0.00,VWS V14.01,2013-12-08 02:17:00,
2013-12-07 19:22:00,11.3,8.9,30.14,NNW,344,0.0,0.0,90,0.00,,---,0.00,VWS V14.01,2013-12-08 02:22:00,
2013-12-07 19:27:00,11.3,8.9,30.14,NNW,344,0.0,0.0,90,0.00,,---,0.00,VWS V14.01,2013-12-08 02:27:00,
2013-12-07 19:32:00,11.3,8.9,30.13,NNW,344,0.0,0.0,90,0.00,,---,0.00,VWS V14.01,2013-12-08 02:32:00,
2013-12-07 19:37:00,11.3,8.9,30.13,NNW,344,0.0,0.0,90,0.00,,---,0.00,VWS V14.01,2013-12-08 02:37:00,
2013-12-07 19:42:00,11.3,8.9,30.12,NNW,344,0.0,0.0,90,0.00,,---,0.00,VWS V14.01,2013-12-08 02:42:00,
2013-12-07 19:47:00,11.3,8.9,30.12,NNW,344,0.0,0.0,90,0.00,,---,0.00,VWS V14.01,2013-12-08 02:47:00,
2013-12-07 19:52:00,11.3,8.9,30.12,NNW,344,0.0,0.0,90,0.00,,---,0.00,VWS V14.01,2013-12-08 02:52:00,
2013-12-07 19:57:00,11.3,8.9,30.12,NNW,344,0.0,0.0,90,0.00,,---,0.00,VWS V14.01,2013-12-08 02:57:00,
2013-12-07 20:02:00,11.3,8.9,30.11,NNW,344,0.0,0.0,90,0.00,,---,0.00,VWS V14.01,2013-12-08 03:02:00,
2013-12-07 20:07:00,11.3,8.9,30.11,NNW,344,0.0,0.0,90,0.00,,---,0.00,VWS V14.01,2013-12-08 03:07:00,
2013-12-07 20:13:00,11.3,8.9,30.11,NNW,344,0.0,0.0,90,0.00,,---,0.00,VWS V14.01,2013-12-08 03:13:00,
2013-12-07 20:18:00,11.3,8.9,30.10,NNW,344,0.0,0.0,90,0.00,,---,0.00,VWS V14.01,2013-12-08 03:18:00,
2013-12-07 20:23:00,11.3,8.9,30.10,NNW,344,0.0,0.0,90,0.00,,---,0.00,VWS V14.01,2013-12-08 03:23:00,
2013-12-07 20:28:00,11.2,8.9,30.10,NNW,344,0.0,0.0,90,0.00,,---,0.00,VWS V14.01,2013-12-08 03:28:00,
2013-12-07 20:33:00,11.3,8.9,30.10,NNW,344,0.0,0.0,90,0.00,,---,0.00,VWS V14.01,2013-12-08 03:33:00,
2013-12-07 20:38:00,11.2,8.9,30.10,NNW,344,0.0,0.0,90,0.00,,---,0.00,VWS V14.01,2013-12-08 03:38:00,
2013-12-07 20:43:00,11.2,8.9,30.09,NNW,344,0.0,0.0,90,0.00,,---,0.00,VWS V14.01,2013-12-08 03:43:00,
2013-12-07 20:48:00,11.2,8.9,30.09,NNW,344,0.0,0.0,90,0.00,,---,0.00,VWS V14.01,2013-12-08 03:48:00,
2013-12-07 20:53:00,11.2,8.9,30.09,NNW,344,0.0,0.0,90,0.00,,---,0.00,VWS V14.01,2013-12-08 03:53:00,
2013-12-07 20:58:00,11.3,8.9,30.08,NNW,344,0.0,0.0,90,0.00,,---,0.00,VWS V14.01,2013-12-08 03:58:00,
2013-12-07 21:03:00,11.2,8.9,30.09,NNW,344,0.0,0.0,90,0.00,,---,0.00,VWS V14.01,2013-12-08 04:03:00,
2013-12-07 21:08:00,11.2,8.9,30.08,NNW,344,0.0,0.0,90,0.00,,---,0.00,VWS V14.01,2013-12-08 04:08:00,
2013-12-07 21:13:00,11.2,8.9,30.08,NNW,344,0.0,0.0,90,0.00,,---,0.00,VWS V14.01,2013-12-08 04:13:00,
2013-12-07 21:18:00,11.2,8.9,30.07,NNW,344,0.0,0.0,90,0.00,,---,0.00,VWS V14.01,2013-12-08 04:18:00,
2013-12-07 21:23:00,11.2,8.9,30.07,NNW,344,0.0,0.0,90,0.00,,---,0.00,VWS V14.01,2013-12-08 04:23:00,
2013-12-07 21:28:00,11.2,8.9,30.07,NNW,344,0.0,0.0,90,0.00,,---,0.00,VWS V14.01,2013-12-08 04:28:00,
2013-12-07 21:33:00,11.2,8.9,30.06,NNW,344,0.0,0.0,90,0.00,,---,0.00,VWS V14.01,2013-12-08 04:33:00,
2013-12-07 21:38:00,11.2,8.9,30.06,NNW,344,0.0,0.0,90,0.00,,---,0.00,VWS V14.01,2013-12-08 04:38:00,
2013-12-07 21:43:00,11.2,8.9,30.06,NNW,344,0.0,0.0,90,0.00,,---,0.00,VWS V14.01,2013-12-08 04:43:00,
2013-12-07 21:48:00,11.2,8.9,30.06,NNW,344,0.0,0.0,90,0.00,,---,0.00,VWS V14.01,2013-12-08 04:48:00,
2013-12-07 21:53:00,11.2,8.9,30.06,NNW,344,0.0,0.0,90,0.00,,---,0.00,VWS V14.01,2013-12-08 04:53:00,
2013-12-07 21:58:00,11.2,8.9,30.05,NNW,344,0.0,0.0,90,0.00,,---,0.00,VWS V14.01,2013-12-08 04:58:00,
2013-12-07 22:01:00,11.2,8.9,30.05,NNW,344,0.0,0.0,90,0.00,,---,0.00,VWS V14.01,2013-12-08 05:01:00,
2013-12-07 22:03:00,11.2,8.9,30.05,NNW,344,0.0,0.0,90,0.00,,---,0.00,VWS V14.01,2013-12-08 05:03:00,
2013-12-07 22:08:00,11.2,8.9,30.05,NNW,344,0.0,0.0,90,0.00,,---,0.00,VWS V14.01,2013-12-08 05:08:00,
2013-12-07 22:13:00,11.2,8.9,30.04,NNW,344,0.0,0.0,90,0.00,,---,0.00,VWS V14.01,2013-12-08 05:13:00,
2013-12-07 22:18:00,11.2,8.9,30.04,NNW,344,0.0,0.0,90,0.00,,---,0.00,VWS V14.01,2013-12-08 05:18:00,
2013-12-07 22:23:00,11.2,8.9,30.04,NNW,344,0.0,0.0,90,0.00,,---,0.00,VWS V14.01,2013-12-08 05:23:00,
2013-12-07 22:28:00,11.2,8.9,30.04,NNW,344,0.0,0.0,90,0.00,,---,0.00,VWS V14.01,2013-12-08 05:28:00,
2013-12-07 22:33:00,11.2,8.9,30.04,NNW,344,0.0,0.0,90,0.00,,---,0.00,VWS V14.01,2013-12-08 05:33:00,
2013-12-07 22:38:00,11.2,8.9,30.03,NNW,344,0.0,0.0,90,0.00,,---,0.00,VWS V14.01,2013-12-08 05:38:00,
2013-12-07 22:43:00,11.2,8.9,30.03,NNW,344,0.0,0.0,90,0.00,,---,0.00,VWS V14.01,2013-12-08 05:43:00,
2013-12-07 22:48:00,11.3,8.9,30.03,NNW,344,0.0,0.0,90,0.00,,---,0.00,VWS V14.01,2013-12-08 05:48:00,
2013-12-07 22:53:00,11.3,8.9,30.02,NNW,344,0.0,0.0,90,0.00,,---,0.00,VWS V14.01,2013-12-08 05:53:00,
2013-12-07 22:58:00,11.3,8.9,30.02,NNW,345,0.0,0.0,90,0.00,,---,0.00,VWS V14.01,2013-12-08 05:58:00,
2013-12-07 23:03:00,11.4,9.0,30.02,NNW,345,0.0,0.0,90,0.00,,---,0.00,VWS V14.01,2013-12-08 06:03:00,
2013-12-07 23:08:00,11.4,9.0,30.02,NNW,345,0.0,0.0,90,0.00,,---,0.00,VWS V14.01,2013-12-08 06:08:00,
2013-12-07 23:13:00,11.4,9.0,30.02,NNW,345,0.0,0.0,90,0.00,,---,0.00,VWS V14.01,2013-12-08 06:13:00,
2013-12-07 23:18:00,11.5,9.1,30.02,NNW,345,0.0,0.0,90,0.00,,---,0.00,VWS V14.01,2013-12-08 06:18:00,
2013-12-07 23:23:00,11.5,9.1,30.01,NNW,345,0.0,0.0,90,0.00,,---,0.00,VWS V14.01,2013-12-08 06:23:00,
2013-12-07 23:28:00,11.5,9.1,30.01,NNW,345,0.0,0.0,90,0.00,,---,0.00,VWS V14.01,2013-12-08 06:28:00,
2013-12-07 23:33:00,11.5,9.1,30.01,NNW,347,0.0,0.0,90,0.00,,---,0.00,VWS V14.01,2013-12-08 06:33:00,
2013-12-07 23:38:00,11.5,9.1,30.00,NNW,348,0.0,0.0,90,0.00,,---,0.00,VWS V14.01,2013-12-08 06:38:00,
2013-12-07 23:43:00,11.5,9.1,30.00,SE,125,0.0,0.0,90,0.00,,---,0.00,VWS V14.01,2013-12-08 06:43:00,
2013-12-07 23:48:00,11.5,9.1,30.00,ESE,111,0.0,0.0,90,0.00,,---,0.00,VWS V14.01,2013-12-08 06:48:00,
2013-12-07 23:53:00,11.6,9.2,30.00,ESE,111,0.0,0.0,90,0.00,,---,0.00,VWS V14.01,2013-12-08 06:53:00,
2013-12-07 23:58:00,11.7,9.3,29.99,ESE,107,0.0,0.0,90,0.00,,---,0.00,VWS V14.01,2013-12-08 06:58:00,